Location: Asheville, NC
(35.6000°N, 82.5500°W)
Time: 14:18:02
(UTC-05:00)

ISS - Pass Details

Date: 15 December 2017
Orbit: 402 x 407 km, 51.6° (Epoch: 20 January)

Event Time Altitude Azimuth Distance (km) Brightness Sun altitude
Rises 19:33:42 0° 297° (WNW) 2,328 0.8 -26.7°
Reaches altitude 10° 19:36:09 10° 279° (W) 1,462 -0.1 -27.2°
Enters shadow 19:38:20 19° 237° (WSW) 1,032 -1.1 -27.6°
